Hourly Weather Parakou

Today, 5 July, Sunday

Time Temperature Precipitation Wind Pressure Humidity
00:00 +23°C° 0 mm 2 mps 728 mmHg 93%
01:00 +23°C° 0 mm 1 mps 728 mmHg 92%
02:00 +23°C° 0 mm 1 mps 728 mmHg 92%
03:00 +23°C° 0 mm 1 mps 727 mmHg 92%
04:00 +23°C° 0 mm 1 mps 728 mmHg 92%
05:00 +24°C° 0 mm 1 mps 728 mmHg 92%
06:00 +24°C° 0 mm 1 mps 728 mmHg 93%
07:00 +24°C° 0.1 mm 1 mps 728 mmHg 90%
08:00 +25°C° 0.1 mm 1 mps 728 mmHg 88%
09:00 +26°C° 0.1 mm 2 mps 729 mmHg 85%
10:00 +28°C° 0.1 mm 1 mps 729 mmHg 78%
11:00 +29°C° 0.1 mm 1 mps 728 mmHg 71%
12:00 +31°C° 0.1 mm 1 mps 728 mmHg 64%
13:00 +31°C° 0.1 mm 1 mps 727 mmHg 63%
14:00 +31°C° 0.1 mm 1 mps 727 mmHg 63%
15:00 +31°C° 0.1 mm 1 mps 726 mmHg 62%
16:00 +30°C° 0.1 mm 1 mps 726 mmHg 68%
17:00 +29°C° 0.1 mm 1 mps 726 mmHg 73%
18:00 +28°C° 0.1 mm 1 mps 726 mmHg 79%
19:00 +27°C° 0 mm 1 mps 727 mmHg 81%
20:00 +26°C° 0 mm 1 mps 727 mmHg 84%
21:00 +26°C° 0 mm 1 mps 728 mmHg 86%
22:00 +25°C° 0 mm 1 mps 728 mmHg 88%
23:00 +25°C° 0 mm 1 mps 728 mmHg 89%

Tomorrow, 6 July, Monday

Time Temperature Precipitation Wind Pressure Humidity
00:00 +25°C° 0 mm 1 mps 728 mmHg 90%
01:00 +24°C° 0.1 mm 1 mps 727 mmHg 91%
02:00 +24°C° 0.1 mm 1 mps 727 mmHg 92%
03:00 +24°C° 0.1 mm 1 mps 726 mmHg 93%
04:00 +24°C° 0 mm 1 mps 727 mmHg 94%
05:00 +24°C° 0 mm 1 mps 727 mmHg 95%
06:00 +24°C° 0 mm 1 mps 727 mmHg 95%
07:00 +25°C° 0 mm 2 mps 728 mmHg 89%
08:00 +27°C° 0 mm 2 mps 728 mmHg 82%
09:00 +28°C° 0 mm 3 mps 728 mmHg 76%
10:00 +30°C° 0 mm 3 mps 728 mmHg 71%
11:00 +31°C° 0 mm 3 mps 728 mmHg 66%
12:00 +33°C° 0 mm 3 mps 727 mmHg 61%
13:00 +33°C° 0 mm 3 mps 726 mmHg 60%
14:00 +34°C° 0 mm 3 mps 726 mmHg 59%
15:00 +34°C° 0 mm 2 mps 725 mmHg 59%
16:00 +31°C° 0.4 mm 2 mps 725 mmHg 67%
17:00 +30°C° 0.4 mm 2 mps 725 mmHg 76%
18:00 +28°C° 0.4 mm 2 mps 725 mmHg 84%
19:00 +27°C° 0.1 mm 2 mps 725 mmHg 86%
20:00 +27°C° 0.1 mm 2 mps 726 mmHg 88%
21:00 +26°C° 0.1 mm 2 mps 727 mmHg 90%
22:00 +26°C° 0.2 mm 2 mps 727 mmHg 91%
23:00 +25°C° 0.2 mm 2 mps 727 mmHg 92%

Day after tomorrow, 7 July, Tuesday

Time Temperature Precipitation Wind Pressure Humidity
00:00 +25°C° 0.2 mm 2 mps 726 mmHg 93%
01:00 +25°C° 1 mm 2 mps 726 mmHg 94%
02:00 +25°C° 1 mm 2 mps 726 mmHg 95%
03:00 +25°C° 1 mm 2 mps 725 mmHg 96%
04:00 +24°C° 0 mm 2 mps 725 mmHg 95%
05:00 +24°C° 0 mm 3 mps 726 mmHg 95%
06:00 +24°C° 0 mm 3 mps 726 mmHg 95%
07:00 +25°C° 0 mm 3 mps 726 mmHg 93%
08:00 +25°C° 0 mm 3 mps 727 mmHg 91%
09:00 +26°C° 0 mm 3 mps 727 mmHg 89%
10:00 +27°C° 0 mm 3 mps 727 mmHg 84%
11:00 +28°C° 0 mm 3 mps 727 mmHg 80%
12:00 +28°C° 0 mm 3 mps 727 mmHg 76%
13:00 +29°C° 0 mm 3 mps 726 mmHg 73%
14:00 +30°C° 0 mm 3 mps 725 mmHg 70%
15:00 +31°C° 0 mm 3 mps 725 mmHg 67%
16:00 +30°C° 0 mm 3 mps 725 mmHg 72%
17:00 +28°C° 0 mm 3 mps 725 mmHg 77%
18:00 +27°C° 0 mm 2 mps 725 mmHg 82%
19:00 +27°C° 0 mm 2 mps 726 mmHg 85%
20:00 +26°C° 0 mm 2 mps 726 mmHg 88%
21:00 +25°C° 0 mm 1 mps 727 mmHg 90%
22:00 +25°C° 0.1 mm 2 mps 727 mmHg 92%
23:00 +25°C° 0.1 mm 2 mps 727 mmHg 94%

8 July, Wednesday

Time Temperature Precipitation Wind Pressure Humidity
00:00 +25°C° 0.1 mm 3 mps 727 mmHg 96%
01:00 +25°C° 0 mm 3 mps 726 mmHg 94%
02:00 +24°C° 0 mm 3 mps 726 mmHg 92%
03:00 +24°C° 0 mm 3 mps 726 mmHg 91%
04:00 +24°C° 0 mm 3 mps 726 mmHg 92%
05:00 +24°C° 0 mm 3 mps 726 mmHg 92%
06:00 +24°C° 0 mm 2 mps 727 mmHg 93%
07:00 +24°C° 0 mm 2 mps 727 mmHg 90%
08:00 +25°C° 0 mm 2 mps 727 mmHg 88%
09:00 +26°C° 0 mm 2 mps 728 mmHg 86%
10:00 +27°C° 0 mm 2 mps 727 mmHg 79%
11:00 +29°C° 0 mm 2 mps 727 mmHg 73%
12:00 +30°C° 0 mm 2 mps 727 mmHg 67%
13:00 +31°C° 0 mm 3 mps 726 mmHg 65%
14:00 +33°C° 0 mm 3 mps 726 mmHg 63%
15:00 +33°C° 0 mm 3 mps 725 mmHg 61%
16:00 +31°C° 0 mm 2 mps 725 mmHg 67%
17:00 +29°C° 0 mm 2 mps 725 mmHg 74%
18:00 +28°C° 0 mm 2 mps 725 mmHg 80%
19:00 +27°C° 0 mm 2 mps 726 mmHg 81%
20:00 +27°C° 0 mm 2 mps 727 mmHg 81%
21:00 +26°C° 0 mm 2 mps 727 mmHg 82%
22:00 +26°C° 0.1 mm 2 mps 727 mmHg 84%
23:00 +26°C° 0.1 mm 3 mps 727 mmHg 87%

9 July, Thursday

Time Temperature Precipitation Wind Pressure Humidity
00:00 +25°C° 0.1 mm 3 mps 727 mmHg 89%
01:00 +25°C° 0.1 mm 3 mps 727 mmHg 91%
02:00 +24°C° 0.1 mm 3 mps 727 mmHg 92%
03:00 +24°C° 0.1 mm 3 mps 727 mmHg 94%
04:00 +24°C° 0 mm 3 mps 727 mmHg 94%
05:00 +24°C° 0 mm 2 mps 727 mmHg 94%
06:00 +24°C° 0 mm 2 mps 727 mmHg 93%
07:00 +25°C° 0 mm 2 mps 728 mmHg 88%
08:00 +26°C° 0 mm 2 mps 728 mmHg 83%
09:00 +27°C° 0 mm 2 mps 729 mmHg 78%
10:00 +29°C° 0.1 mm 2 mps 729 mmHg 74%
11:00 +30°C° 0.1 mm 2 mps 728 mmHg 69%
12:00 +31°C° 0.1 mm 2 mps 728 mmHg 64%
13:00 +31°C° 0.1 mm 2 mps 727 mmHg 62%
14:00 +32°C° 0.1 mm 2 mps 727 mmHg 59%
15:00 +32°C° 0.1 mm 1 mps 726 mmHg 56%
16:00 +31°C° 0.2 mm 1 mps 726 mmHg 63%
17:00 +30°C° 0.2 mm 1 mps 726 mmHg 69%
18:00 +29°C° 0.2 mm 1 mps 726 mmHg 75%
19:00 +28°C° 0.1 mm 2 mps 727 mmHg 79%
20:00 +27°C° 0.1 mm 2 mps 727 mmHg 83%
21:00 +26°C° 0.1 mm 2 mps 728 mmHg 87%
22:00 +25°C° 0 mm 2 mps 728 mmHg 88%
23:00 +25°C° 0 mm 2 mps 728 mmHg 89%

10 July, Friday

Time Temperature Precipitation Wind Pressure Humidity
00:00 +25°C° 0 mm 3 mps 728 mmHg 91%
01:00 +24°C° 0 mm 3 mps 728 mmHg 91%
02:00 +24°C° 0 mm 2 mps 728 mmHg 91%
03:00 +23°C° 0 mm 2 mps 727 mmHg 91%
04:00 +23°C° 0 mm 2 mps 728 mmHg 91%
05:00 +23°C° 0 mm 2 mps 728 mmHg 92%
06:00 +23°C° 0 mm 2 mps 728 mmHg 93%
07:00 +24°C° 0.1 mm 2 mps 728 mmHg 90%
08:00 +25°C° 0.1 mm 3 mps 729 mmHg 86%
09:00 +26°C° 0.1 mm 3 mps 729 mmHg 82%
10:00 +26°C° 0 mm 3 mps 729 mmHg 81%
11:00 +27°C° 0 mm 2 mps 728 mmHg 80%
12:00 +27°C° 0 mm 2 mps 728 mmHg 78%
13:00 +28°C° 0.2 mm 2 mps 727 mmHg 76%
14:00 +29°C° 0.2 mm 2 mps 727 mmHg 73%
15:00 +30°C° 0.2 mm 2 mps 726 mmHg 71%
16:00 +28°C° 1.3 mm 2 mps 726 mmHg 77%
17:00 +27°C° 1.3 mm 1 mps 726 mmHg 83%
18:00 +26°C° 1.3 mm 1 mps 726 mmHg 90%
19:00 +26°C° 0.2 mm 1 mps 727 mmHg 92%
20:00 +25°C° 0.2 mm 2 mps 727 mmHg 93%
21:00 +24°C° 0.2 mm 2 mps 727 mmHg 95%
22:00 +24°C° 0.1 mm 2 mps 727 mmHg 96%
23:00 +24°C° 0.1 mm 2 mps 727 mmHg 96%
Show more